Hlavní strana
METAR-TAF:

METAR-TAF

Letiště :

El Goléa, Alžírsko

zeměpisná šířka: 30-34N, zeměpisná délka: 002-52E, výška: 397 m

Aktuální stav počasí

Zpráva byla vytvořena před 50 minutami, v 03:00 UTC
Severní vítr 4 kt
Teplota 14°C
Vlhkost vzduchu 36%
Tlak 1021 hPa
Viditelnost 10 km a více
Žádná oblačnost pod 1500 m, nevyskytují se cumulonimby.

METAR: DAUE 070300Z 35004KT CAVOK 14/M01 Q1021

Čas: 04:50 (03:50 UTC)


TAF: chybějící

Stav a předpovědi počasí z více než 4 000 letišť (zprávy METAR a TAF).

Červené a žluté tečky na mapě představují dostupné meteorologické stanice.

Když kurzor umístíte na tečku, zobrazí se název stanice.

Pak kliknutím zobrazíte stav a předpověď počasí.

Chcete-li změnit mapu, kliknutím na zelené tlačítko se znaménkem +mapu přiblížíte, kliknutím na zelené tlačítko se znaménkem – mapu oddálíte a kliknutím na zelené šipky přejdete na sousední mapy.


METAR-TAF: